Location: Juzet
(42.9779°N, 0.7597°E)
Time: 18:05:52
(UTC+00:00)

Cosmos 2061 Rocket - Pass Details

Date: 14 July 2020
Orbit: 965 x 1013 km, 82.9° (Epoch: 12 August)

Event Time Altitude Azimuth Distance (km) Brightness Sun altitude
Exits shadow 01:41:58 37° 181° (S) 1,501 4.5 -21.5°
Maximum altitude 01:44:42 85° 97° (E) 1,005 4.0 -21.3°
Drops below altitude 10° 01:51:02 10° 9° (N) 2,752 7.4 -20.8°
Sets 01:53:32 0° 9° (N) 3,697 8.3 -20.6°
